| time (UTC) | temp F | wind direction | speed MPH | gust MPH | rain 1hr in | rain 24hr in | rain mn in | humidity % | barometer mb |
| 20260504002058 | 74 | 296 | 8.0 | 9.0 | 0.00 | 0.00 | 0.00 | 26 | 1010.0 |
| 20260504001556 | 74 | 310 | 8.0 | 9.0 | 0.00 | 0.00 | 0.00 | 27 | 1010.0 |
| 20260504001052 | 74 | 317 | 7.0 | 10.0 | 0.00 | 0.00 | 0.00 | 25 | 1010.3 |
| 20260504000549 | 75 | 28 | 5.0 | 8.0 | 0.00 | 0.00 | 0.00 | 24 | 1010.1 |
| 20260504000046 | 75 | 322 | 9.0 | 11.0 | 0.00 | 0.00 | 0.00 | 26 | 1010.1 |
| 20260503235545 | 75 | 306 | 7.0 | 8.0 | 0.00 | 0.00 | 0.00 | 25 | 1010.3 |
| 20260503235041 | 75 | 316 | 5.0 | 7.0 | 0.00 | 0.00 | 0.00 | 24 | 1010.5 |
| 20260503234539 | 75 | 345 | 4.0 | 6.0 | 0.00 | 0.00 | 0.00 | 23 | 1010.1 |
| 20260503234037 | 75 | 350 | 6.0 | 7.0 | 0.00 | 0.00 | 0.00 | 25 | 1010.2 |
| 20260503233533 | 75 | 300 | 9.0 | 11.0 | 0.00 | 0.00 | 0.00 | 24 | 1010.2 |
| 20260503233029 | 75 | 332 | 10.0 | 13.0 | 0.00 | 0.00 | 0.00 | 23 | 1010.3 |
| 20260503232526 | 75 | 342 | 7.0 | 10.0 | 0.00 | 0.00 | 0.00 | 22 | 1010.2 |
| 20260503232024 | 75 | 292 | 10.0 | 11.0 | 0.00 | 0.00 | 0.00 | 22 | 1010.3 |
| 20260503231522 | 75 | 285 | 10.0 | 10.0 | 0.00 | 0.00 | 0.00 | 22 | 1010.5 |
| 20260503231018 | 75 | 317 | 3.0 | 5.0 | 0.00 | 0.00 | 0.00 | 22 | 1010.5 |
| 20260503230515 | 74 | 346 | 5.0 | 6.0 | 0.00 | 0.00 | 0.00 | 22 | 1010.7 |
| 20260503230012 | 74 | 236 | 5.0 | 5.0 | 0.00 | 0.00 | 0.00 | 21 | 1010.7 |
| 20260503225509 | 75 | 310 | 7.0 | 8.0 | 0.00 | 0.00 | 0.00 | 24 | 1010.8 |
| 20260503225004 | 75 | 326 | 3.0 | 5.0 | 0.00 | 0.00 | 0.00 | 24 | 1010.8 |
| 20260503224502 | 75 | 288 | 3.0 | 5.0 | 0.00 | 0.00 | 0.00 | 22 | 1010.7 |
| 20260503223959 | 75 | 256 | 7.0 | 8.0 | 0.00 | 0.00 | 0.00 | 22 | 1010.9 |
| 20260503223457 | 74 | 281 | 8.0 | 9.0 | 0.00 | 0.00 | 0.00 | 21 | 1010.9 |
| 20260503222952 | 75 | 288 | 8.0 | 10.0 | 0.00 | 0.00 | 0.00 | 22 | 1011.0 |
| 20260503222451 | 75 | 297 | 15.0 | 16.0 | 0.00 | 0.00 | 0.00 | 23 | 1011.0 |
| 20260503221949 | 75 | 309 | 7.0 | 9.0 | 0.00 | 0.00 | 0.00 | 22 | 1011.2 |
| 20260503221447 | 75 | 313 | 4.0 | 6.0 | 0.00 | 0.00 | 0.00 | 22 | 1011.0 |
| 20260503220943 | 74 | 289 | 11.0 | 11.0 | 0.00 | 0.00 | 0.00 | 22 | 1011.2 |
| 20260503220439 | 75 | 302 | 10.0 | 11.0 | 0.00 | 0.00 | 0.00 | 23 | 1011.1 |
| 20260503215937 | 74 | 328 | 3.0 | 3.0 | 0.00 | 0.00 | 0.00 | 23 | 1011.5 |
| 20260503215433 | 74 | 294 | 7.0 | 9.0 | 0.00 | 0.00 | 0.00 | 23 | 1011.6 |
| 20260503214931 | 74 | 277 | 6.0 | 6.0 | 0.00 | 0.00 | 0.00 | 26 | 1011.5 |
| 20260503214429 | 74 | 254 | 6.0 | 8.0 | 0.00 | 0.00 | 0.00 | 27 | 1011.6 |
| 20260503213926 | 74 | 281 | 10.0 | 10.0 | 0.00 | 0.00 | 0.00 | 28 | 1011.7 |
| 20260503213424 | 76 | 294 | 4.0 | 7.0 | 0.00 | 0.00 | 0.00 | 27 | 1011.7 |
| 20260503212920 | 75 | 229 | 4.0 | 5.0 | 0.00 | 0.00 | 0.00 | 28 | 1011.7 |
| 20260503212418 | 75 | 333 | 0.0 | 0.0 | 0.00 | 0.00 | 0.00 | 27 | 1011.9 |
| 20260503211915 | 74 | 295 | 7.0 | 8.0 | 0.00 | 0.00 | 0.00 | 27 | 1011.8 |
| 20260503211412 | 74 | 272 | 5.0 | 6.0 | 0.00 | 0.00 | 0.00 | 26 | 1012.2 |
| 20260503210907 | 74 | 148 | 2.0 | 2.0 | 0.00 | 0.00 | 0.00 | 28 | 1012.0 |
| 20260503210404 | 74 | 65 | 4.0 | 5.0 | 0.00 | 0.00 | 0.00 | 31 | 1012.2 |
| 20260503205859 | 74 | 17 | 4.0 | 5.0 | 0.00 | 0.00 | 0.00 | 29 | 1012.4 |
| 20260503205356 | 74 | 355 | 2.0 | 3.0 | 0.00 | 0.00 | 0.00 | 30 | 1012.5 |
| 20260503204852 | 74 | 96 | 4.0 | 5.0 | 0.00 | 0.00 | 0.00 | 29 | 1012.6 |
| 20260503204349 | 74 | 354 | 3.0 | 5.0 | 0.00 | 0.00 | 0.00 | 29 | 1012.6 |
| 20260503203847 | 73 | 318 | 4.0 | 5.0 | 0.00 | 0.00 | 0.00 | 31 | 1012.6 |
| 20260503203344 | 73 | 29 | 4.0 | 6.0 | 0.00 | 0.00 | 0.00 | 30 | 1012.8 |
| 20260503202841 | 74 | 60 | 4.0 | 5.0 | 0.00 | 0.00 | 0.00 | 30 | 1012.7 |
| 20260503202339 | 73 | 138 | 4.0 | 5.0 | 0.00 | 0.00 | 0.00 | 29 | 1012.9 |
| 20260503201838 | 72 | 61 | 1.0 | 1.0 | 0.00 | 0.00 | 0.00 | 33 | 1012.9 |
| 20260503201334 | 72 | 10 | 2.0 | 3.0 | 0.00 | 0.00 | 0.00 | 28 | 1013.1 |
| 20260503200832 | 71 | 292 | 1.0 | 2.0 | 0.00 | 0.00 | 0.00 | 28 | 1013.1 |
| 20260503200327 | 72 | 18 | 1.0 | 2.0 | 0.00 | 0.00 | 0.00 | 34 | 1013.0 |
| 20260503195825 | 72 | 127 | 4.0 | 5.0 | 0.00 | 0.00 | 0.00 | 33 | 1013.1 |
| 20260503195321 | 72 | 66 | 1.0 | 1.0 | 0.00 | 0.00 | 0.00 | 35 | 1013.2 |
| 20260503194819 | 72 | 78 | 2.0 | 3.0 | 0.00 | 0.00 | 0.00 | 34 | 1013.5 |
| 20260503194314 | 71 | 300 | 6.0 | 7.0 | 0.00 | 0.00 | 0.00 | 34 | 1013.4 |
| 20260503193811 | 71 | 267 | 2.0 | 2.0 | 0.00 | 0.00 | 0.00 | 37 | 1013.6 |
| 20260503193307 | 72 | 27 | 1.0 | 1.0 | 0.00 | 0.00 | 0.00 | 32 | 1013.8 |
| 20260503192803 | 70 | 334 | 1.0 | 2.0 | 0.00 | 0.00 | 0.00 | 34 | 1013.8 |
| 20260503192258 | 71 | 278 | 7.0 | 8.0 | 0.00 | 0.00 | 0.00 | 34 | 1013.9 |
| 20260503191755 | 70 | 318 | 3.0 | 5.0 | 0.00 | 0.00 | 0.00 | 34 | 1013.8 |
| 20260503191252 | 70 | 51 | 2.0 | 2.0 | 0.00 | 0.00 | 0.00 | 34 | 1013.9 |
| 20260503190748 | 70 | 273 | 6.0 | 7.0 | 0.00 | 0.00 | 0.00 | 35 | 1013.9 |
| 20260503190245 | 70 | 51 | 2.0 | 2.0 | 0.00 | 0.00 | 0.00 | 35 | 1014.4 |
| 20260503185743 | 70 | 64 | 2.0 | 3.0 | 0.00 | 0.00 | 0.00 | 37 | 1014.2 |
| 20260503185238 | 70 | 22 | 1.0 | 1.0 | 0.00 | 0.00 | 0.00 | 38 | 1014.4 |
| 20260503184733 | 68 | 63 | 2.0 | 2.0 | 0.00 | 0.00 | 0.00 | 38 | 1014.2 |
| 20260503184230 | 68 | 91 | 2.0 | 3.0 | 0.00 | 0.00 | 0.00 | 38 | 1014.6 |
| 20260503183726 | 68 | 147 | 4.0 | 5.0 | 0.00 | 0.00 | 0.00 | 37 | 1014.6 |
| 20260503183223 | 69 | 261 | 1.0 | 2.0 | 0.00 | 0.00 | 0.00 | 37 | 1014.9 |
| 20260503182721 | 69 | 55 | 1.0 | 2.0 | 0.00 | 0.00 | 0.00 | 39 | 1014.8 |
| 20260503182220 | 69 | 63 | 1.0 | 1.0 | 0.00 | 0.00 | 0.00 | 39 | 1014.9 |
| 20260503181716 | 68 | 22 | 1.0 | 1.0 | 0.00 | 0.00 | 0.00 | 41 | 1014.8 |
| 20260503181213 | 68 | 98 | 0.0 | 1.0 | 0.00 | 0.00 | 0.00 | 38 | 1015.0 |
| 20260503180709 | 67 | 55 | 1.0 | 1.0 | 0.00 | 0.00 | 0.00 | 41 | 1015.0 |
| 20260503180208 | 66 | 86 | 1.0 | 2.0 | 0.00 | 0.00 | 0.00 | 41 | 1015.3 |
| 20260503175704 | 66 | 354 | 2.0 | 2.0 | 0.00 | 0.00 | 0.00 | 40 | 1015.5 |
| 20260503175202 | 67 | 75 | 2.0 | 3.0 | 0.00 | 0.00 | 0.00 | 40 | 1015.6 |
| 20260503174658 | 65 | 20 | 1.0 | 1.0 | 0.00 | 0.00 | 0.00 | 43 | 1015.6 |
| 20260503174156 | 64 | 84 | 4.0 | 5.0 | 0.00 | 0.00 | 0.00 | 43 | 1015.8 |
| 20260503173650 | 64 | 39 | 0.0 | 0.0 | 0.00 | 0.00 | 0.00 | 42 | 1015.8 |
| 20260503173147 | 64 | 77 | 4.0 | 5.0 | 0.00 | 0.00 | 0.00 | 43 | 1015.9 |
| 20260503172644 | 64 | 101 | 1.0 | 2.0 | 0.00 | 0.00 | 0.00 | 44 | 1016.1 |
| 20260503172141 | 63 | 59 | 0.0 | 1.0 | 0.00 | 0.00 | 0.00 | 46 | 1016.0 |
| 20260503171637 | 64 | 116 | 4.0 | 5.0 | 0.00 | 0.00 | 0.00 | 44 | 1016.3 |
| 20260503171135 | 64 | 55 | 2.0 | 2.0 | 0.00 | 0.00 | 0.00 | 48 | 1016.4 |
| 20260503170632 | 62 | 50 | 1.0 | 2.0 | 0.00 | 0.00 | 0.00 | 50 | 1016.3 |
| 20260503170129 | 62 | 30 | 1.0 | 1.0 | 0.00 | 0.00 | 0.00 | 52 | 1016.3 |
| 20260503150520 | 51 | 294 | 0.0 | 0.0 | 0.00 | 0.00 | 0.00 | 64 | 1017.5 |
| 20260503131413 | 41 | 38 | 0.0 | 0.0 | 0.00 | 0.00 | 0.00 | 82 | 1017.8 |
| 20260503130910 | 41 | 30 | 0.0 | 0.0 | 0.00 | 0.00 | 0.00 | 83 | 1017.7 |
| 20260503130408 | 40 | 288 | 0.0 | 0.0 | 0.00 | 0.00 | 0.00 | 83 | 1017.6 |
| 20260503110811 | 39 | 45 | 0.0 | 0.0 | 0.00 | 0.00 | 0.00 | 86 | 1017.6 |
| 20260503110308 | 40 | 75 | 0.0 | 0.0 | 0.00 | 0.00 | 0.00 | 86 | 1017.5 |
| 20260503100235 | 42 | 85 | 0.0 | 1.0 | 0.00 | 0.00 | 0.00 | 80 | 1017.7 |
| 20260503090154 | 46 | 95 | 0.0 | 1.0 | 0.00 | 0.00 | 0.00 | 74 | 1017.4 |
| 20260503081624 | 47 | 179 | 0.0 | 0.0 | 0.00 | 0.00 | 0.00 | 72 | 1017.6 |
| 20260503081121 | 46 | 85 | 1.0 | 1.0 | 0.00 | 0.00 | 0.00 | 73 | 1017.8 |
| 20260503080617 | 46 | 356 | 0.0 | 0.0 | 0.00 | 0.00 | 0.00 | 76 | 1017.5 |
| 20260503080114 | 48 | 240 | 0.0 | 0.0 | 0.00 | 0.00 | 0.00 | 74 | 1017.7 |
| 20260503072551 | 49 | 111 | 5.0 | 6.0 | 0.00 | 0.00 | 0.00 | 71 | 1016.7 |
| 20260503072048 | 49 | 112 | 3.0 | 3.0 | 0.00 | 0.00 | 0.00 | 71 | 1017.5 |
| 20260503071544 | 49 | 263 | 2.0 | 2.0 | 0.00 | 0.00 | 0.00 | 71 | 1017.7 |
| 20260503071041 | 49 | 285 | 3.0 | 3.0 | 0.00 | 0.00 | 0.00 | 71 | 1017.7 |
| 20260503070538 | 49 | 220 | 2.0 | 2.0 | 0.00 | 0.00 | 0.00 | 71 | 1017.6 |
| 20260503054951 | 47 | 103 | 0.0 | 0.0 | 0.00 | 0.00 | 0.00 | 71 | 1017.2 |
| 20260503054447 | 48 | 110 | 0.0 | 1.0 | 0.00 | 0.00 | 0.00 | 70 | 1016.9 |
| 20260503053945 | 47 | 96 | 0.0 | 0.0 | 0.00 | 0.00 | 0.00 | 72 | 1017.0 |
| 20260503053443 | 47 | 102 | 0.0 | 0.0 | 0.00 | 0.00 | 0.00 | 71 | 1017.2 |
| 20260503052939 | 48 | 102 | 0.0 | 0.0 | 0.00 | 0.00 | 0.00 | 70 | 1017.2 |
| 20260503052437 | 46 | 123 | 2.0 | 2.0 | 0.00 | 0.00 | 0.00 | 71 | 1016.9 |
| 20260503051933 | 48 | 100 | 2.0 | 2.0 | 0.00 | 0.00 | 0.00 | 69 | 1016.7 |
| 20260503051429 | 48 | 102 | 0.0 | 0.0 | 0.00 | 0.00 | 0.00 | 68 | 1017.2 |
| 20260503050926 | 49 | 103 | 0.0 | 0.0 | 0.00 | 0.00 | 0.00 | 68 | 1017.2 |
| 20260503050422 | 49 | 116 | 0.0 | 0.0 | 0.00 | 0.00 | 0.00 | 66 | 1017.0 |
| 20260503045920 | 50 | 132 | 0.0 | 0.0 | 0.00 | 0.00 | 0.00 | 66 | 1016.9 |
| 20260503045417 | 50 | 140 | 2.0 | 2.0 | 0.00 | 0.00 | 0.00 | 65 | 1016.9 |
| 20260503044914 | 50 | 101 | 0.0 | 0.0 | 0.00 | 0.00 | 0.00 | 64 | 1017.0 |
| 20260503044411 | 51 | 132 | 0.0 | 1.0 | 0.00 | 0.00 | 0.00 | 63 | 1016.8 |
| 20260503043908 | 51 | 141 | 1.0 | 1.0 | 0.00 | 0.00 | 0.00 | 63 | 1016.8 |
| 20260503043404 | 51 | 145 | 1.0 | 2.0 | 0.00 | 0.00 | 0.00 | 62 | 1016.9 |
| 20260503042901 | 51 | 135 | 1.0 | 1.0 | 0.00 | 0.00 | 0.00 | 60 | 1016.8 |
| 20260503042358 | 52 | 153 | 1.0 | 1.0 | 0.00 | 0.00 | 0.00 | 60 | 1016.7 |
| 20260503041854 | 53 | 86 | 0.0 | 0.0 | 0.00 | 0.00 | 0.00 | 60 | 1016.8 |
| 20260503041351 | 53 | 86 | 0.0 | 0.0 | 0.00 | 0.00 | 0.00 | 58 | 1016.9 |
| 20260503040848 | 53 | 86 | 1.0 | 2.0 | 0.00 | 0.00 | 0.00 | 58 | 1016.9 |
| 20260503040346 | 54 | 86 | 1.0 | 1.0 | 0.00 | 0.00 | 0.00 | 57 | 1016.9 |
| 20260503035842 | 55 | 41 | 0.0 | 0.0 | 0.00 | 0.00 | 0.00 | 54 | 1017.0 |
| 20260503035340 | 55 | 9 | 0.0 | 0.0 | 0.00 | 0.00 | 0.00 | 54 | 1016.9 |
| 20260503034837 | 56 | 330 | 0.0 | 0.0 | 0.00 | 0.00 | 0.00 | 52 | 1016.6 |
| 20260503034334 | 58 | 299 | 1.0 | 1.0 | 0.00 | 0.00 | 0.00 | 49 | 1016.5 |
| 20260503033831 | 58 | 227 | 2.0 | 2.0 | 0.00 | 0.00 | 0.00 | 48 | 1016.5 |
| 20260503033329 | 58 | 260 | 2.0 | 2.0 | 0.00 | 0.00 | 0.00 | 48 | 1016.5 |
| 20260503032827 | 57 | 274 | 2.0 | 2.0 | 0.00 | 0.00 | 0.00 | 51 | 1016.4 |
| 20260503032325 | 57 | 117 | 4.0 | 5.0 | 0.00 | 0.00 | 0.00 | 51 | 1016.3 |
| 20260503031822 | 58 | 267 | 2.0 | 2.0 | 0.00 | 0.00 | 0.00 | 47 | 1016.0 |
| 20260503031320 | 59 | 269 | 3.0 | 3.0 | 0.00 | 0.00 | 0.00 | 46 | 1015.9 |
| 20260503030816 | 60 | 322 | 1.0 | 1.0 | 0.00 | 0.00 | 0.00 | 45 | 1016.0 |
| 20260503030313 | 60 | 323 | 0.0 | 0.0 | 0.00 | 0.00 | 0.00 | 44 | 1015.8 |
| 20260503025809 | 61 | 318 | 1.0 | 1.0 | 0.00 | 0.00 | 0.00 | 43 | 1015.8 |
| 20260503025307 | 61 | 294 | 2.0 | 2.0 | 0.00 | 0.00 | 0.00 | 42 | 1015.9 |
| 20260503024804 | 61 | 276 | 3.0 | 3.0 | 0.00 | 0.00 | 0.00 | 42 | 1015.8 |
| 20260503024300 | 62 | 290 | 2.0 | 2.0 | 0.00 | 0.00 | 0.00 | 42 | 1015.6 |
| 20260503023757 | 63 | 295 | 1.0 | 2.0 | 0.00 | 0.00 | 0.00 | 41 | 1015.8 |
| 20260503023254 | 63 | 309 | 1.0 | 2.0 | 0.00 | 0.00 | 0.00 | 40 | 1015.7 |
| 20260503022750 | 64 | 295 | 2.0 | 2.0 | 0.00 | 0.00 | 0.00 | 40 | 1015.7 |
| 20260503022245 | 64 | 274 | 3.0 | 3.0 | 0.00 | 0.00 | 0.00 | 39 | 1015.6 |
| 20260503021742 | 65 | 275 | 3.0 | 3.0 | 0.00 | 0.00 | 0.00 | 38 | 1015.7 |
| 20260503021238 | 65 | 284 | 3.0 | 3.0 | 0.00 | 0.00 | 0.00 | 39 | 1015.7 |
| 20260503020736 | 66 | 290 | 2.0 | 2.0 | 0.00 | 0.00 | 0.00 | 39 | 1015.8 |
| 20260503020234 | 66 | 276 | 2.0 | 2.0 | 0.00 | 0.00 | 0.00 | 37 | 1015.5 |
| 20260503015730 | 66 | 277 | 2.0 | 2.0 | 0.00 | 0.00 | 0.00 | 37 | 1015.6 |
| 20260503015227 | 67 | 284 | 1.0 | 2.0 | 0.00 | 0.00 | 0.00 | 37 | 1015.5 |
| 20260503014723 | 67 | 277 | 2.0 | 2.0 | 0.00 | 0.00 | 0.00 | 36 | 1015.6 |
| 20260503014221 | 67 | 277 | 1.0 | 1.0 | 0.00 | 0.00 | 0.00 | 37 | 1015.7 |
| 20260503013718 | 68 | 277 | 2.0 | 2.0 | 0.00 | 0.00 | 0.00 | 36 | 1015.7 |
| 20260503013216 | 68 | 304 | 1.0 | 2.0 | 0.00 | 0.00 | 0.00 | 37 | 1015.6 |
| 20260503012713 | 68 | 313 | 1.0 | 1.0 | 0.00 | 0.00 | 0.00 | 36 | 1015.6 |
| 20260503012210 | 68 | 284 | 0.0 | 0.0 | 0.00 | 0.00 | 0.00 | 34 | 1015.6 |
| 20260503011706 | 69 | 321 | 2.0 | 2.0 | 0.00 | 0.00 | 0.00 | 33 | 1015.7 |
| 20260503011203 | 70 | 293 | 4.0 | 5.0 | 0.00 | 0.00 | 0.00 | 32 | 1015.7 |
| 20260503010659 | 69 | 324 | 1.0 | 1.0 | 0.00 | 0.00 | 0.00 | 33 | 1015.8 |
| 20260503010151 | 70 | 345 | 2.0 | 2.0 | 0.00 | 0.00 | 0.00 | 37 | 1015.6 |
| 20260503005648 | 70 | 17 | 1.0 | 1.0 | 0.00 | 0.00 | 0.00 | 35 | 1015.7 |
| 20260503005145 | 69 | 348 | 1.0 | 1.0 | 0.00 | 0.00 | 0.00 | 35 | 1015.8 |
| 20260503004641 | 69 | 23 | 0.0 | 1.0 | 0.00 | 0.00 | 0.00 | 37 | 1015.8 |
| 20260503004140 | 69 | 25 | 0.0 | 1.0 | 0.00 | 0.00 | 0.00 | 34 | 1015.9 |
| 20260503003637 | 69 | 313 | 3.0 | 3.0 | 0.00 | 0.00 | 0.00 | 33 | 1015.9 |
| 20260503003134 | 70 | 3 | 1.0 | 1.0 | 0.00 | 0.00 | 0.00 | 33 | 1016.1 |
| 20260503002631 | 70 | 327 | 2.0 | 2.0 | 0.00 | 0.00 | 0.00 | 33 | 1015.9 |
| 20260503002128 | 70 | 6 | 1.0 | 1.0 | 0.00 | 0.00 | 0.00 | 34 | 1016.3 |